COMSATBW-1

导读

COMSATBW-1,全称德国军用通信卫星1号,由阿斯特里姆公司牵头研发、阿尔卡特空间公司与阿莱尼亚宇航公司参与平台研制,是德国首颗独立军用通信卫星,定轨地球静止轨道(GEO)。该卫星于2009年9月30日发射,旨在为德国联邦国防军提供安全稳定的军事通信服务,是德国早期太空防务建设的重要成果,服役超十年后将被新一代SATCOMBw 3卫星替代。

Basic Information
目录编号:
35943
目录名称:
COMSATBW-1
国际标识:
2009-054B
轨道中心:
EARTH
卫星名称:
COMSATBW-1
卫星全名:
--
卫星状态:
在轨 (已飞行6108 天)
发射日期:
2009-09-30 UTC
国别 :
德国 (DE)
星等 :
--
Orbit Information
数据来源 国际轨道数据 AOE轨道数据
星历时间 2026-06-20T10:51:52+0800
1天前
查看轨道信息
2026-06-21T07:00:00+0800
11小时前
查看轨道信息
半长轴 42165.457km 42165.597km
偏心率 0.0002841 0.0002968
轨道倾角 0.053° 0.059°
近地点辐角 289.091° 296.633°
升交点赤经 157.979° 149.038°
平近点角 287.269° 231.520°
近地点 35775.34km 35774.945km
远地点 35799.3km 35799.975km
周期 1436.134分钟 1436.141分钟
每日圈数 1.002692 1.002687
Detailed Information
使用方式:
暂无
2D Orbit Map
3D Orbit Map
Orbit Altitude Analysis Chart
Orbit Inclination Analysis Chart
Orbit Comprehensive Analysis Chart
View Comprehensive Chart